DW0550 Weather Reports


Display with metric or nautical units.
time (UTC)temp
F
wind
direction
speed
MPH
gust
MPH
rain 1hr
in
rain 24hr
in
rain mn
in
humidity
%
barometer
mb
20180925232557 83 144 1.0 10.0 0.00 0.00 0.00 39 1015.9
20180925232037 83 169 3.0 10.0 0.00 0.00 0.00 42 1015.8
20180925231532 84 222 0.0 0.0 0.00 0.00 0.00 45 1015.8
20180925231520 85 222 0.0 0.0 0.00 0.00 0.00 48 1015.6
20180925231027 85 222 0.0 0.0 0.00 0.00 0.00 48 1015.9
20180925230520 85 222 0.0 0.0 0.00 0.00 0.00 50 1015.8
20180925225539 85 222 0.0 1.0 0.00 0.00 0.00 54 1015.7
20180925225033 85 222 0.0 4.0 0.00 0.00 0.00 53 1015.6
20180925224608 85 236 1.0 4.0 0.00 0.00 0.00 54 1015.5
20180925224046 85 163 0.0 7.0 0.00 0.00 0.00 55 1015.6
20180925223541 86 167 2.0 7.0 0.00 0.00 0.00 56 1015.4
20180925223107 86 180 0.0 5.0 0.00 0.00 0.00 59 1015.3
20180925223035 85 157 0.0 1.0 0.00 0.00 0.00 52 1015.4
20180925222608 85 157 0.0 0.0 0.00 0.00 0.00 56 1015.3
20180925222101 85 157 0.0 1.0 0.00 0.00 0.00 55 1015.3
20180925221607 85 157 0.0 1.0 0.00 0.00 0.00 56 1015.1
20180925221553 85 157 0.0 1.0 0.00 0.00 0.00 53 1015.2
20180925221048 84 155 0.0 4.0 0.00 0.00 0.00 51 1015.2
20180925220526 84 155 1.0 4.0 0.00 0.00 0.00 50 1015.2
20180925220129 85 155 0.0 1.0 0.00 0.00 0.00 55 1015.1
20180925220059 84 155 0.0 1.0 0.00 0.00 0.00 49 1015.2
20180925215552 84 155 0.0 0.0 0.00 0.00 0.00 48 1015.0
20180925215047 84 155 0.0 0.0 0.00 0.00 0.00 47 1015.0
20180925214650 84 155 0.0 3.0 0.00 0.00 0.00 46 1014.9
20180925214542 84 155 0.0 3.0 0.00 0.00 0.00 43 1015.0
20180925214016 83 155 0.0 3.0 0.00 0.00 0.00 47 1015.1
20180925213610 83 141 0.0 0.0 0.00 0.00 0.00 46 1015.0
20180925213103 84 141 0.0 1.0 0.00 0.00 0.00 49 1014.9
20180925213100 83 141 0.0 1.0 0.00 0.00 0.00 46 1015.0
20180925212549 83 141 0.0 1.0 0.00 0.00 0.00 49 1014.9
20180925212028 83 124 0.0 0.0 0.00 0.00 0.00 50 1014.9
20180925211607 84 124 0.0 4.0 0.00 0.00 0.00 51 1014.7
20180925211602 83 124 0.0 4.0 0.00 0.00 0.00 48 1014.8
20180925211037 83 124 1.0 4.0 0.00 0.00 0.00 43 1014.5
20180925210530 83 123 0.0 1.0 0.00 0.01 0.00 43 1014.4
20180925210058 83 119 0.0 0.0 0.00 0.00 0.00 45 1014.6
20180925205529 83 117 0.0 3.0 0.00 0.01 0.00 39 1014.7
20180925205102 83 215 0.0 3.0 0.00 0.01 0.00 41 1014.9
20180925204621 83 247 0.0 2.0 0.00 0.01 0.00 46 1015.0
20180925204557 83 247 0.0 2.0 0.00 0.01 0.00 43 1015.0
20180925204034 83 288 0.0 3.0 0.00 0.01 0.00 42 1015.0
20180925203529 83 288 0.0 4.0 0.00 0.01 0.00 36 1015.0
20180925203104 82 288 0.0 6.0 0.00 0.01 0.00 38 1015.0
20180925203041 83 288 0.0 6.0 0.00 0.01 0.00 41 1015.0
20180925202555 82 285 1.0 6.0 0.00 0.01 0.00 38 1015.2
20180925202050 82 216 0.0 0.0 0.00 0.01 0.00 36 1015.3
20180925201548 83 216 0.0 0.0 0.00 0.01 0.00 39 1015.2
20180925201545 83 215 0.0 0.0 0.00 0.01 0.00 36 1015.4
20180925201021 83 209 0.0 0.0 0.00 0.01 0.00 37 1015.3
20180925200556 83 209 0.0 6.0 0.00 0.85 0.00 37 1015.3
20180925200144 84 297 1.0 9.0 0.00 0.01 0.00 43 1015.3
20180925195558 84 123 0.0 7.0 0.00 0.85 0.00 44 1015.5
20180925195031 85 337 0.0 7.0 0.00 0.85 0.00 45 1015.8
20180925194557 85 220 0.0 0.0 0.00 0.86 0.00 50 1015.4
20180925194525 85 220 0.0 0.0 0.00 0.85 0.00 47 1015.8
20180925194101 84 219 0.0 1.0 0.00 0.85 0.00 47 1015.5
20180925193555 84 215 0.0 1.0 0.00 0.85 0.00 48 1015.6
20180925193050 84 171 0.0 1.0 0.00 0.85 0.00 47 1015.8
20180925193044 84 171 0.0 1.0 0.00 0.86 0.00 50 1015.5
20180925192527 84 175 0.0 1.0 0.00 0.85 0.00 44 1015.8
20180925192102 83 173 0.0 1.0 0.00 0.85 0.00 45 1015.9
20180925191635 83 196 0.0 0.0 0.00 0.86 0.00 43 1015.7
20180925191554 83 196 0.0 0.0 0.00 0.85 0.00 40 1016.0
20180925191030 82 196 0.0 0.0 0.00 0.85 0.00 40 1015.9
20180925190525 82 196 0.0 0.0 0.00 0.86 0.00 43 1016.0
20180925190044 82 196 0.0 0.0 0.00 0.86 0.00 48 1016.0
20180925185543 82 167 0.0 7.0 0.00 0.86 0.00 45 1016.3
20180925185022 82 168 0.0 8.0 0.00 0.86 0.00 50 1016.5
20180925184602 83 173 0.0 8.0 0.00 0.86 0.00 52 1016.5
20180925184553 82 173 0.0 8.0 0.00 0.86 0.00 49 1016.7
20180925184028 82 175 0.0 9.0 0.00 0.86 0.00 49 1016.6
20180925183523 82 191 3.0 15.0 0.00 0.86 0.00 50 1016.5
20180925183034 83 168 3.0 15.0 0.00 0.86 0.00 52 1016.3
20180925183018 82 175 4.0 15.0 0.00 0.86 0.00 49 1016.5
20180925182613 83 180 3.0 16.0 0.00 0.86 0.00 48 1016.6
20180925182045 84 155 4.0 20.0 0.00 0.86 0.00 49 1016.6
20180925181549 85 162 8.0 20.0 0.00 0.86 0.00 57 1016.3
20180925181540 85 162 9.0 20.0 0.00 0.86 0.00 54 1016.6
20180925181018 87 124 5.0 17.0 0.00 0.86 0.00 57 1016.7
20180925180553 88 169 6.0 15.0 0.00 0.86 0.00 59 1016.6
20180925180019 89 142 5.0 13.0 0.00 0.86 0.00 61 1016.4
20180925175553 88 200 3.0 14.0 0.00 0.86 0.00 59 1016.7
20180925175046 88 166 4.0 14.0 0.00 0.86 0.00 59 1016.7
20180925174547 89 180 7.0 13.0 0.00 0.86 0.00 62 1016.4
20180925174539 88 173 7.0 13.0 0.00 0.86 0.00 59 1016.6
20180925174032 88 177 0.0 7.0 0.00 0.86 0.00 57 1016.6
20180925173608 88 174 2.0 9.0 0.00 0.86 0.00 59 1016.7
20180925173043 88 212 1.0 9.0 0.00 0.86 0.00 59 1016.7
20180925173037 89 212 1.0 9.0 0.00 0.86 0.00 62 1016.6
20180925172520 88 160 0.0 12.0 0.00 0.86 0.00 59 1016.9
20180925172052 88 177 4.0 12.0 0.00 0.86 0.00 58 1016.9
20180925171546 87 188 4.0 12.0 0.00 0.86 0.00 59 1017.0
20180925171521 88 188 5.0 12.0 0.00 0.86 0.00 62 1016.9
20180925171041 88 185 0.0 8.0 0.00 0.86 0.00 55 1017.2
20180925170535 87 175 1.0 8.0 0.00 0.86 0.00 57 1017.2
20180925170031 89 173 1.0 10.0 0.00 0.86 0.00 61 1016.9
20180925165533 88 188 1.0 10.0 0.00 0.86 0.00 55 1017.1
20180925165048 87 184 2.0 9.0 0.00 0.86 0.00 58 1017.3
20180925164526 88 177 0.0 7.0 0.00 0.86 0.00 54 1017.2
20180925164512 88 177 0.0 7.0 0.00 0.86 0.00 51 1017.0
20180925164022 88 188 1.0 10.0 0.00 0.86 0.00 56 1017.3
20180925163558 87 178 4.0 10.0 0.00 0.86 0.00 58 1017.3
20180925163051 88 171 0.0 3.0 0.00 0.86 0.00 54 1017.3
20180925163010 88 178 0.0 3.0 0.00 0.86 0.00 60 1017.2
20180925162546 88 173 0.0 9.0 0.00 0.86 0.00 55 1017.4
20180925162040 87 175 0.0 12.0 0.00 0.86 0.00 57 1017.4
20180925161520 87 164 2.0 12.0 0.00 0.86 0.00 51 1017.4
20180925161511 87 164 1.0 12.0 0.00 0.86 0.00 54 1017.4
20180925161111 86 153 0.0 9.0 0.00 0.86 0.00 50 1017.5
20180925160549 86 175 6.0 9.0 0.00 0.86 0.00 54 1017.4
20180925160004 87 161 0.0 10.0 0.00 0.86 0.00 55 1017.4
20180925155548 86 171 3.0 10.0 0.00 0.86 0.00 56 1017.5
20180925155042 86 188 0.0 5.0 0.00 0.86 0.00 53 1017.6
20180925154535 87 188 0.0 7.0 0.00 0.86 0.00 54 1017.7
20180925154506 87 188 0.0 7.0 0.00 0.86 0.00 57 1017.6
20180925154030 87 181 1.0 7.0 0.00 0.86 0.00 57 1017.7
20180925153605 87 207 0.0 5.0 0.00 0.86 0.00 55 1017.7
20180925153043 86 215 1.0 7.0 0.00 0.86 0.00 53 1017.7
20180925153003 87 215 0.0 7.0 0.00 0.86 0.00 57 1017.5
20180925152534 86 177 3.0 7.0 0.00 0.86 0.00 49 1017.7
20180925152106 85 190 0.0 7.0 0.00 0.86 0.00 48 1017.7
20180925151602 85 180 1.0 5.0 0.00 0.86 0.00 51 1017.6
20180925151600 85 180 2.0 7.0 0.00 0.86 0.00 43 1017.7
20180925151054 84 187 0.0 7.0 0.00 0.86 0.00 40 1017.6
20180925150526 84 182 0.0 0.0 0.00 0.86 0.00 37 1017.5
20180925150104 84 183 0.0 8.0 0.00 0.86 0.00 38 1017.6
20180925150059 84 183 0.0 8.0 0.00 0.86 0.00 41 1017.5
20180925145557 84 182 3.0 8.0 0.00 0.86 0.00 40 1017.6
20180925145031 83 170 1.0 7.0 0.00 0.86 0.00 40 1017.4
20180925144606 83 169 2.0 6.0 0.00 0.86 0.00 38 1017.4
20180925144558 84 176 1.0 6.0 0.00 0.86 0.00 41 1017.4
20180925144040 82 173 0.0 1.0 0.00 0.86 0.00 35 1017.4
20180925143532 82 171 0.0 5.0 0.00 0.86 0.00 34 1017.4
20180925143106 82 172 1.0 5.0 0.00 0.86 0.00 35 1017.2
20180925143029 82 171 0.0 5.0 0.00 0.86 0.00 37 1017.3
20180925142600 82 171 0.0 5.0 0.00 0.86 0.00 33 1017.3
20180925142039 81 159 1.0 5.0 0.00 0.86 0.00 33 1017.3
20180925141534 81 163 0.0 0.0 0.00 0.86 0.00 34 1017.3
20180925141528 81 163 0.0 0.0 0.00 0.86 0.00 37 1017.1
20180925141029 80 164 0.0 3.0 0.00 0.86 0.00 36 1017.2
20180925140524 79 165 0.0 3.0 0.00 0.86 0.00 38 1017.2
20180925140032 80 163 0.0 0.0 0.00 0.86 0.00 43 1016.9
20180925135541 79 163 0.0 0.0 0.00 0.86 0.00 40 1017.1
20180925135035 79 163 0.0 0.0 0.00 0.86 0.00 41 1017.1
20180925134607 79 163 0.0 0.0 0.00 0.86 0.00 41 1017.1
20180925134532 79 163 0.0 0.0 0.00 0.86 0.00 44 1017.0
20180925134046 78 163 0.0 0.0 0.00 0.86 0.00 42 1017.2
20180925133541 78 164 0.0 0.0 0.00 0.86 0.00 42 1017.2
20180925133035 77 164 0.0 0.0 0.00 0.86 0.00 42 1017.3
20180925133026 78 164 0.0 0.0 0.00 0.86 0.00 45 1017.1
20180925132530 77 164 0.0 0.0 0.00 0.86 0.00 42 1017.3
20180925132104 77 164 0.0 0.0 0.00 0.86 0.00 42 1017.2
20180925131558 76 164 0.0 0.0 0.00 0.86 0.00 42 1017.1
20180925131519 77 164 0.0 0.0 0.00 0.86 0.00 45 1016.9
20180925131053 76 164 0.0 0.0 0.00 0.86 0.00 42 1017.1
20180925130531 75 164 0.0 0.0 0.00 0.86 0.00 42 1016.9
20180925130109 75 164 0.0 0.0 0.00 0.86 0.00 41 1016.9
20180925130011 76 164 0.0 0.0 0.00 0.86 0.00 44 1016.6
20180925125602 75 164 0.0 0.0 0.00 0.86 0.00 41 1016.9
20180925125044 75 164 0.0 0.0 0.00 0.86 0.00 41 1016.8
20180925124539 74 164 0.0 0.0 0.00 0.86 0.00 41 1016.7
20180925124515 75 164 0.0 0.0 0.00 0.86 0.00 44 1016.6
20180925124034 74 164 0.0 0.0 0.00 0.86 0.00 41 1016.6
20180925123609 74 164 0.0 0.0 0.00 0.86 0.00 40 1016.6
20180925123045 74 164 0.0 0.0 0.00 0.86 0.00 40 1016.5
20180925123004 74 164 0.0 0.0 0.00 0.86 0.00 43 1016.3
20180925122540 74 164 0.0 0.0 0.00 0.86 0.00 40 1016.6
20180925122017 74 164 0.0 0.0 0.00 0.86 0.00 40 1016.5
20180925121612 74 164 0.0 0.0 0.00 0.86 0.00 43 1016.4
20180925121548 74 164 0.0 0.0 0.00 0.86 0.00 40 1016.5
20180925121042 74 164 0.0 0.0 0.00 0.86 0.00 40 1016.5
20180925120537 74 164 0.0 0.0 0.00 0.86 0.00 40 1016.4
20180925120143 74 164 0.0 0.0 0.00 0.86 0.00 43 1016.2
20180925115538 74 164 0.0 0.0 0.00 0.86 0.00 40 1016.4
20180925115033 74 164 0.0 0.0 0.00 0.86 0.00 40 1016.2
20180925114717 75 164 0.0 0.0 0.00 0.86 0.00 43 1016.1
20180925114607 74 164 0.0 0.0 0.00 0.86 0.00 40 1016.2
20180925114046 74 164 0.0 0.0 0.00 0.86 0.00 40 1016.2
20180925113541 74 164 0.0 0.0 0.00 0.86 0.00 40 1016.2
20180925113055 75 164 0.0 0.0 0.00 0.86 0.00 43 1016.0
20180925113036 74 164 0.0 0.0 0.00 0.86 0.00 40 1016.1
20180925112531 74 164 0.0 0.0 0.00 0.86 0.00 40 1016.0
20180925112026 74 164 0.0 0.0 0.00 0.86 0.00 40 1015.9
20180925111552 75 164 0.0 0.0 0.00 0.86 0.00 43 1015.8
20180925111520 74 164 0.0 0.0 0.00 0.86 0.00 40 1016.0
20180925111054 74 164 0.0 0.0 0.00 0.86 0.00 40 1016.0
20180925110533 75 164 0.0 0.0 0.00 0.86 0.00 40 1016.0
20180925110047 75 164 0.0 0.0 0.00 0.86 0.00 43 1015.8
20180925105535 75 164 0.0 0.0 0.00 0.86 0.00 40 1015.9
20180925105050 75 164 0.0 0.0 0.00 0.86 0.00 40 1015.9
20180925104545 75 164 0.0 0.0 0.00 0.86 0.00 40 1015.8
20180925104040 75 164 0.0 0.0 0.00 0.86 0.00 40 1015.7
20180925103535 75 164 0.0 0.0 0.00 0.86 0.00 40 1015.7
20180925103109 75 164 0.0 0.0 0.00 0.86 0.00 40 1015.6
20180925103050 75 164 0.0 0.0 0.00 0.86 0.00 43 1015.5
20180925102548 75 164 0.0 0.0 0.00 0.86 0.00 40 1015.6
20180925102043 75 164 0.0 0.0 0.00 0.86 0.00 40 1015.6
20180925101545 75 164 0.0 0.0 0.00 0.86 0.00 43 1015.5
20180925101538 75 164 0.0 0.0 0.00 0.86 0.00 40 1015.8
20180925101033 75 164 0.0 0.0 0.00 0.86 0.00 40 1015.7
20180925100528 75 164 0.0 0.0 0.00 0.86 0.00 40 1015.7
20180925100045 75 164 0.0 0.0 0.00 0.86 0.00 43 1015.6
20180925095549 75 164 0.0 0.0 0.00 0.86 0.00 40 1015.7
20180925095027 75 164 0.0 0.0 0.00 0.86 0.00 40 1015.7
20180925094611 75 164 0.0 0.0 0.00 0.86 0.00 42 1015.5
20180925094601 75 164 0.0 0.0 0.00 0.86 0.00 39 1015.6
20180925094036 75 164 0.0 0.0 0.00 0.86 0.00 39 1015.5
20180925093530 75 164 0.0 0.0 0.00 0.86 0.00 39 1015.6
20180925093105 75 164 0.0 0.0 0.00 0.86 0.00 39 1015.6
20180925093102 75 164 0.0 0.0 0.00 0.86 0.00 42 1015.4
20180925092550 75 164 0.0 0.0 0.00 0.86 0.00 39 1015.5
20180925092045 75 164 0.0 0.0 0.00 0.86 0.00 39 1015.5
20180925091641 75 164 0.0 0.0 0.00 0.86 0.00 42 1015.3
20180925091523 75 164 0.0 0.0 0.00 0.86 0.00 39 1015.5
20180925091058 75 164 0.0 0.0 0.00 0.86 0.00 39 1015.4
20180925090534 75 164 0.0 0.0 0.00 0.94 0.00 39 1015.5
20180925090041 75 164 0.0 0.0 0.00 0.86 0.00 42 1015.2
20180925085531 75 164 0.0 0.0 0.00 0.94 0.00 39 1015.5
20180925085025 75 164 0.0 0.0 0.00 0.94 0.00 39 1015.4
20180925084546 75 164 0.0 0.0 0.00 0.94 0.00 42 1015.2
20180925084517 75 164 0.0 0.0 0.00 0.94 0.00 39 1015.5
20180925084050 75 164 0.0 0.0 0.00 0.94 0.00 39 1015.3
20180925083544 75 164 0.0 0.0 0.00 0.94 0.00 39 1015.3
20180925083148 75 164 0.0 0.0 0.00 0.94 0.00 42 1015.3
20180925083021 75 164 0.0 0.0 0.00 0.94 0.00 39 1015.4
20180925082557 75 164 0.0 0.0 0.00 0.94 0.00 39 1015.4
20180925082051 75 164 0.0 0.0 0.00 0.94 0.00 39 1015.3
20180925081605 76 164 0.0 0.0 0.00 0.94 0.00 42 1015.1
20180925081545 75 164 0.0 0.0 0.00 0.94 0.00 39 1015.1
20180925081038 75 164 0.0 0.0 0.00 0.94 0.00 39 1015.2
20180925080532 75 164 0.0 0.0 0.00 0.94 0.00 39 1015.2
20180925080030 76 164 0.0 0.0 0.00 0.94 0.00 42 1015.1
20180925075554 75 164 0.0 0.0 0.00 0.94 0.00 39 1015.2
20180925075029 75 164 0.0 0.0 0.00 0.94 0.00 39 1015.4
20180925074602 75 164 0.0 0.0 0.00 0.94 0.00 39 1015.4
20180925074552 76 164 0.0 0.0 0.00 0.94 0.00 42 1015.1
20180925074057 75 164 0.0 0.0 0.00 0.94 0.00 39 1015.4
20180925073551 75 164 0.0 0.0 0.00 0.94 0.00 39 1015.3
20180925073044 75 164 0.0 0.0 0.00 0.94 0.00 39 1015.4
20180925073040 76 164 0.0 0.0 0.00 0.94 0.00 42 1015.1
20180925072538 75 164 0.0 0.0 0.00 0.94 0.00 39 1015.3
20180925072029 75 164 0.0 0.0 0.00 0.94 0.00 39 1015.4
20180925071603 75 164 0.0 0.0 0.00 0.94 0.00 39 1015.4
20180925071538 75 164 0.0 0.0 0.00 0.94 0.00 42 1015.2
20180925071037 75 164 0.0 0.0 0.00 0.94 0.00 39 1015.4
20180925070532 75 164 0.0 0.0 0.00 0.94 0.00 39 1015.3
20180925070109 75 164 0.0 0.0 0.00 0.94 0.00 39 1015.3
20180925070022 76 164 0.0 0.0 0.00 0.94 0.00 42 1015.2
20180925065521 75 164 0.0 0.0 0.00 0.94 0.00 39 1015.3
20180925065034 75 164 0.0 0.0 0.00 0.94 0.00 39 1015.4
20180925064528 75 164 0.0 0.0 0.00 0.94 0.00 39 1015.3
20180925064023 75 164 0.0 0.0 0.00 0.94 0.00 39 1015.3
20180925063521 75 164 0.0 0.0 0.00 0.94 0.00 39 1015.2
20180925063035 75 164 0.0 0.0 0.00 0.94 0.00 39 1015.1
20180925063021 76 164 0.0 0.0 0.00 0.94 0.00 42 1015.0
20180925062530 75 164 0.0 0.0 0.00 0.94 0.00 39 1015.2
20180925062025 75 164 0.0 0.0 0.00 0.94 0.00 39 1015.2
20180925061537 76 164 0.0 0.0 0.00 0.94 0.00 42 1015.0
20180925061520 76 164 0.0 0.0 0.00 0.94 0.00 39 1015.0
20180925061034 76 164 0.0 0.0 0.00 0.94 0.00 39 1015.1
20180925060529 76 164 0.0 0.0 0.00 0.94 0.00 39 1015.2
20180925060106 76 164 0.0 0.0 0.00 0.94 0.00 39 1015.2
20180925060020 76 164 0.0 0.0 0.00 0.94 0.00 42 1014.9
20180925055522 76 164 0.0 0.0 0.00 0.94 0.00 39 1015.0
20180925055017 76 164 0.0 0.0 0.00 0.94 0.00 38 1015.2
20180925054531 76 164 0.0 0.0 0.00 0.94 0.00 38 1015.2
20180925054511 76 164 0.0 0.0 0.00 0.94 0.00 41 1014.9
20180925054025 76 164 0.0 0.0 0.00 0.94 0.00 38 1015.3
20180925053519 76 164 0.0 0.0 0.00 0.94 0.00 38 1015.3
20180925053034 76 164 0.0 0.0 0.00 0.94 0.00 38 1015.2
20180925053017 76 164 0.0 0.0 0.00 0.94 0.00 41 1015.1
20180925052527 76 164 0.0 0.0 0.00 0.94 0.00 38 1015.3
20180925052025 76 164 0.0 0.0 0.00 0.94 0.00 39 1015.3
20180925051520 76 164 0.0 0.0 0.00 0.94 0.00 39 1015.3
20180925051515 77 164 0.0 0.0 0.00 0.94 0.00 42 1015.1
20180925051034 76 164 0.0 0.0 0.00 0.94 0.00 39 1015.2
20180925050528 76 165 0.0 8.0 0.00 0.94 0.94 39 1015.2
20180925050005 77 165 2.0 8.0 0.00 0.94 0.00 42 1015.3
20180925045548 76 193 0.0 0.0 0.00 0.94 0.94 39 1015.3
20180925045043 76 193 0.0 0.0 0.00 0.94 0.94 39 1015.5
20180925044538 76 193 0.0 0.0 0.00 0.94 0.94 39 1015.4
20180925044502 77 193 0.0 0.0 0.00 0.94 0.94 42 1015.4
20180925044032 76 193 0.0 3.0 0.00 0.94 0.94 39 1015.4
20180925043603 76 193 1.0 4.0 0.00 0.94 0.94 39 1015.5
20180925043041 76 194 0.0 0.0 0.00 0.94 0.94 39 1015.4
20180925043001 76 194 0.0 0.0 0.00 0.94 0.94 42 1015.4
20180925042536 76 194 0.0 0.0 0.00 0.94 0.94 39 1015.6
20180925042031 76 194 0.0 0.0 0.00 0.94 0.94 39 1015.6
20180925041611 76 194 0.0 0.0 0.00 0.94 0.94 42 1015.4
20180925041606 76 194 0.0 0.0 0.00 0.94 0.94 39 1015.5
20180925041057 76 194 0.0 0.0 0.00 0.94 0.94 39 1015.5
20180925040533 76 194 0.0 0.0 0.00 0.94 0.94 39 1015.6
20180925040057 76 194 0.0 0.0 0.00 0.94 0.94 42 1015.3
20180925035553 76 194 0.0 0.0 0.00 0.94 0.94 39 1015.6
20180925035029 76 194 0.0 0.0 0.00 0.94 0.94 39 1015.6
20180925034620 77 194 0.0 0.0 0.00 0.94 0.94 42 1015.2
20180925034603 76 194 0.0 0.0 0.00 0.94 0.94 39 1015.4
20180925034057 76 194 0.0 0.0 0.00 0.94 0.94 39 1015.4
20180925033552 76 194 0.0 0.0 0.00 0.94 0.94 39 1015.5
20180925033125 77 194 0.0 0.0 0.00 0.94 0.94 42 1015.3
20180925033045 76 194 0.0 0.0 0.00 0.94 0.94 39 1015.5
20180925032541 76 194 0.0 0.0 0.00 0.94 0.94 39 1015.3
20180925032016 76 194 0.0 0.0 0.00 0.94 0.94 39 1015.3
20180925031632 77 194 0.0 0.0 0.00 0.94 0.94 42 1015.1
20180925031606 76 194 0.0 0.0 0.00 0.94 0.94 39 1015.3
20180925031045 76 194 0.0 0.0 0.00 0.94 0.94 39 1015.2
20180925030540 76 194 0.0 0.0 0.00 0.94 0.94 39 1015.1
20180925030137 76 194 0.0 0.0 0.00 0.94 0.94 42 1014.9
20180925025542 76 194 0.0 0.0 0.00 0.94 0.94 39 1015.2
20180925025037 76 194 0.0 0.0 0.00 0.94 0.94 39 1015.0
20180925024605 76 194 0.0 0.0 0.00 0.94 0.94 41 1014.8
20180925024532 76 194 0.0 0.0 0.00 0.94 0.94 38 1014.9
20180925024102 76 194 0.0 0.0 0.00 0.94 0.94 38 1014.8
20180925023538 76 194 0.0 0.0 0.00 0.94 0.94 38 1015.0
20180925023114 76 194 0.0 0.0 0.00 0.94 0.94 38 1015.0
20180925023108 76 194 0.0 0.0 0.00 0.94 0.94 41 1014.8
20180925022601 76 194 0.0 0.0 0.00 0.94 0.94 38 1015.0
20180925022056 76 194 0.0 0.0 0.00 0.94 0.94 38 1014.8
20180925021552 77 194 0.0 0.0 0.00 0.94 0.94 42 1014.6
20180925021550 76 194 0.0 0.0 0.00 0.94 0.94 39 1014.8
20180925021045 76 194 0.0 0.0 0.00 0.94 0.94 38 1014.9
20180925020539 76 194 0.0 0.0 0.00 0.94 0.94 38 1014.8
20180925020127 76 194 0.0 0.0 0.00 0.94 0.94 41 1014.6
20180925015542 76 194 0.0 0.0 0.00 0.94 0.94 38 1014.6
20180925015036 76 194 0.0 0.0 0.00 0.94 0.94 38 1014.6
20180925014549 76 194 0.0 0.0 0.00 0.94 0.94 41 1014.4
20180925014532 76 194 0.0 0.0 0.00 0.94 0.94 38 1014.6
20180925014105 76 194 0.0 0.0 0.00 0.94 0.94 38 1014.4
20180925013600 76 194 0.0 0.0 0.00 0.94 0.94 38 1014.3
20180925013058 76 194 0.0 0.0 0.00 0.94 0.94 41 1014.1
20180925013052 76 194 0.0 0.0 0.00 0.94 0.94 38 1014.3
20180925012544 76 194 0.0 0.0 0.00 0.94 0.94 38 1014.1
20180925012023 76 194 0.0 0.0 0.00 0.94 0.94 38 1014.0
20180925011618 76 194 0.0 0.0 0.00 0.94 0.94 41 1014.0
20180925011554 76 194 0.0 0.0 0.00 0.94 0.94 38 1014.0
20180925011049 76 194 0.0 0.0 0.00 0.94 0.94 38 1013.8
20180925010544 76 194 0.0 0.0 0.00 0.94 0.94 38 1013.8
20180925010128 76 194 0.0 0.0 0.00 0.94 0.94 41 1013.7
20180925005602 76 194 0.0 0.0 0.00 0.94 0.94 38 1013.7
20180925005034 76 194 0.0 0.0 0.00 0.94 0.94 38 1013.5
20180925004619 76 194 0.0 0.0 0.00 0.94 0.94 41 1013.5
20180925004603 76 194 0.0 0.0 0.00 0.94 0.94 38 1013.6
20180925004058 76 194 0.0 0.0 0.00 0.94 0.94 38 1013.5
20180925003531 76 194 0.0 0.0 0.00 0.94 0.94 38 1013.7
20180925003106 76 194 0.0 0.0 0.00 0.94 0.94 38 1013.7
20180925003041 76 194 0.0 0.0 0.00 0.94 0.94 41 1013.6
20180925002600 76 194 0.0 0.0 0.00 0.94 0.94 38 1013.7
20180925002051 76 194 0.0 0.0 0.00 0.94 0.94 38 1013.5
20180925001603 76 194 0.0 0.0 0.00 0.94 0.94 41 1013.3
20180925001542 76 194 0.0 0.0 0.00 0.94 0.94 38 1013.5
20180925001035 76 194 0.0 0.0 0.00 0.94 0.94 38 1013.2
20180925000527 76 194 0.0 0.0 0.00 0.94 0.94 38 1013.1
20180925000118 76 194 0.0 0.0 0.00 0.94 0.94 41 1012.9
20180924235530 76 194 0.0 0.0 0.00 0.94 0.94 38 1013.1
20180924235025 76 194 0.0 0.0 0.00 0.94 0.94 37 1013.1
20180924234606 77 194 0.0 0.0 0.00 0.94 0.94 40 1013.1
20180924234520 76 194 0.0 0.0 0.00 0.94 0.94 37 1013.2
20180924234055 76 194 0.0 0.0 0.00 0.94 0.94 37 1013.1
20180924233548 76 194 0.0 0.0 0.00 0.94 0.94 37 1013.1
20180924233047 77 194 0.0 0.0 0.00 0.94 0.94 40 1013.0
20180924233044 76 194 0.0 0.0 0.00 0.94 0.94 37 1013.1